OPS 7218 (TRANSIT 16) 1 02807U 67048A 23340.54820369 .00000153 00000-0 22251-3 0 9995 2 02807 89.6696 18.2263 0022237 88.7783 79.6258 13.50453621783254 OPS 4947 (TRANSIT 17) 1 2965U 67092A 23341.18253059 .00000164 00000-0 22674-3 0 9997 2 2965 89.2294 81.4964 0047174 212.7379 211.0093 13.53166392771778 OPS 7034 (TRANSIT 18) 1 03133U 68012A 23340.36066184 .00000190 00000-0 27284-3 0 9999 2 03133 90.0183 272.0989 0075365 145.0886 335.3767 13.51291813469599 NNSS 19 (TRANSIT 19) 1 04507U 70067A 23340.26398165 .00000158 00000-0 21268-3 0 9994 2 04507 89.9579 236.0074 0170625 269.7947 88.3653 13.50991638622639 NNSS 20 (TRANSIT 20) 1 06909U 73081A 23340.28951273 .00000262 00000-0 25709-3 0 9998 2 06909 89.8307 267.4310 0157264 128.3253 233.2169 13.70919931702551 TRANSAT 1 10457U 77106A 23340.81989091 .00000108 00000-0 15551-3 0 9994 2 10457 89.6596 104.6500 0026091 155.2220 359.4079 13.48769057268095 NOVA 1 1 12458U 81044A 23340.38516632 .00000100 00000-0 21585-3 0 9998 2 12458 89.8719 101.4002 0013585 342.6176 77.2843 13.23139578 54353 NOVA 3 1 15362U 84110A 23340.28326310 .00000068 00000-0 14095-3 0 9994 2 15362 90.1152 72.3325 0031650 199.3576 221.9339 13.22907557889481 OSCAR 30 1 15935U 85066A 23341.21886594 .00000079 00000-0 12787-3 0 9998 2 15935 90.1829 87.3348 0168025 2.2543 58.4071 13.35863453866269 OSCAR 24 1 15936U 85066B 23341.20066264 .00000088 00000-0 14464-3 0 9996 2 15936 90.1856 79.2363 0168938 8.3799 51.5503 13.35723655868322 POLAR BEAR 1 17070U 86088A 23341.17351101 .00000114 00000-0 10710-3 0 9995 2 17070 89.5951 213.8398 0039064 179.5453 296.3576 13.74995557858839 OSCAR 27 1 18361U 87080A 23340.27025748 .00000125 00000-0 19283-3 0 9993 2 18361 90.3554 52.5086 0104650 175.6634 184.5446 13.44680430776455 OSCAR 29 1 18362U 87080B 23340.26060581 .00000113 00000-0 17502-3 0 9996 2 18362 90.3569 52.8932 0105613 197.0829 223.9243 13.44253161776011 OSCAR 23 1 19070U 88033A 23340.93873767 .00000099 00000-0 18031-3 0 9995 2 19070 90.3147 353.6795 0191428 69.6118 355.7676 13.27611095724767 OSCAR 32 1 19071U 88033B 23340.56920910 .00000086 00000-0 15495-3 0 9995 2 19071 90.3151 353.7678 0189643 58.2248 59.6810 13.27788113724821 NOVA 2 1 19223U 88052A 23340.30491084 .00000086 00000-0 18395-3 0 9994 2 19223 89.9829 79.6161 0029212 244.0205 177.4992 13.22812159711986 OSCAR 25 1 19419U 88074A 23340.58127590 .00000113 00000-0 17964-3 0 9995 2 19419 90.0149 18.4218 0096134 188.1030 327.0089 13.42405050727499 OSCAR 31 1 19420U 88074B 23340.51340645 .00000109 00000-0 17201-3 0 9997 2 19420 90.0162 18.6611 0094536 182.4132 306.2044 13.42402042727598